When you browse on this site, cookies collect data to enhance your experience and personalize the content and advertising you see.
Visit our Privacy Policy to learn more. By continuing to use the site, you agree to this use of cookies and data.
  • In United Kingdom
  • List of Countries
  • For 7 days
  • Water Temperature
  • Satellite Maps
  • Weather Map
  • Weather Widgets
  • user-avatar
    Login

    Hourly Weather Villavicencio

    Today, 25 June, Tuesday

    Time Temperature Precipitation Wind Pressure Humidity
    00:00 +23°C° 0 mm 1 mps 719 mmHg 91%
    01:00 +23°C° 0 mm 1 mps 719 mmHg 91%
    02:00 +22°C° 0 mm 1 mps 718 mmHg 90%
    03:00 +22°C° 0 mm 1 mps 718 mmHg 89%
    04:00 +22°C° 0 mm 1 mps 718 mmHg 88%
    05:00 +23°C° 0 mm 1 mps 718 mmHg 87%
    06:00 +21°C° 0 mm 0 mps 719 mmHg 86%
    07:00 +21°C° 0 mm 0 mps 719 mmHg 84%
    08:00 +22°C° 0 mm 0 mps 719 mmHg 84%
    09:00 +23°C° 0 mm 0 mps 719 mmHg 84%
    10:00 +23°C° 0 mm 0 mps 719 mmHg 84%
    11:00 +26°C° 0.1 mm 1 mps 719 mmHg 82%
    12:00 +27°C° 0.1 mm 2 mps 719 mmHg 81%
    13:00 +28°C° 0.1 mm 2 mps 718 mmHg 79%
    14:00 +28°C° 0.4 mm 2 mps 717 mmHg 84%
    15:00 +27°C° 0.4 mm 1 mps 717 mmHg 89%
    16:00 +26°C° 0.4 mm 1 mps 716 mmHg 93%
    17:00 +25°C° 0 mm 1 mps 716 mmHg 94%
    18:00 +25°C° 0 mm 1 mps 716 mmHg 94%
    19:00 +24°C° 0 mm 1 mps 717 mmHg 94%
    20:00 +24°C° 0 mm 1 mps 717 mmHg 93%
    21:00 +23°C° 0 mm 1 mps 718 mmHg 92%
    22:00 +23°C° 0 mm 1 mps 718 mmHg 91%
    23:00 +23°C° 0 mm 1 mps 718 mmHg 90%

    Tomorrow, 26 June, Wednesday

    Time Temperature Precipitation Wind Pressure Humidity
    00:00 +23°C° 0 mm 1 mps 718 mmHg 89%
    01:00 +23°C° 0 mm 1 mps 718 mmHg 88%
    02:00 +23°C° 0 mm 1 mps 718 mmHg 87%
    03:00 +23°C° 0 mm 1 mps 718 mmHg 85%
    04:00 +23°C° 0 mm 1 mps 718 mmHg 84%
    05:00 +21°C° 0 mm 0 mps 718 mmHg 83%
    06:00 +22°C° 0 mm 0 mps 718 mmHg 83%
    07:00 +22°C° 0 mm 0 mps 718 mmHg 82%
    08:00 +25°C° 0 mm 1 mps 719 mmHg 80%
    09:00 +27°C° 0 mm 1 mps 719 mmHg 78%
    10:00 +28°C° 0 mm 1 mps 719 mmHg 76%
    11:00 +28°C° 0.5 mm 1 mps 718 mmHg 78%
    12:00 +28°C° 0.5 mm 1 mps 718 mmHg 80%
    13:00 +28°C° 0.5 mm 2 mps 717 mmHg 82%
    14:00 +28°C° 0.4 mm 1 mps 716 mmHg 82%
    15:00 +29°C° 0.4 mm 1 mps 715 mmHg 82%
    16:00 +29°C° 0.4 mm 1 mps 715 mmHg 83%
    17:00 +28°C° 0.2 mm 1 mps 715 mmHg 86%
    18:00 +26°C° 0.2 mm 1 mps 715 mmHg 90%
    19:00 +23°C° 0.2 mm 0 mps 716 mmHg 94%
    20:00 +25°C° 0.5 mm 1 mps 716 mmHg 94%
    21:00 +24°C° 0.5 mm 1 mps 717 mmHg 94%
    22:00 +23°C° 0.5 mm 1 mps 718 mmHg 93%
    23:00 +23°C° 0 mm 1 mps 718 mmHg 92%

    Day after tomorrow, 27 June, Thursday

    Time Temperature Precipitation Wind Pressure Humidity
    00:00 +23°C° 0 mm 1 mps 717 mmHg 91%
    01:00 +21°C° 0 mm 2 mps 717 mmHg 90%
    02:00 +21°C° 0 mm 2 mps 717 mmHg 85%
    03:00 +21°C° 0 mm 2 mps 717 mmHg 81%
    04:00 +21°C° 0 mm 2 mps 717 mmHg 77%
    05:00 +21°C° 0 mm 2 mps 717 mmHg 75%
    06:00 +23°C° 0 mm 1 mps 717 mmHg 74%
    07:00 +23°C° 0 mm 1 mps 718 mmHg 72%
    08:00 +25°C° 0 mm 1 mps 718 mmHg 68%
    09:00 +27°C° 0 mm 1 mps 718 mmHg 64%
    10:00 +29°C° 0 mm 1 mps 719 mmHg 60%
    11:00 +30°C° 0 mm 2 mps 718 mmHg 62%
    12:00 +30°C° 0 mm 2 mps 717 mmHg 63%
    13:00 +30°C° 0 mm 3 mps 716 mmHg 65%
    14:00 +30°C° 0.1 mm 2 mps 716 mmHg 70%
    15:00 +29°C° 0.1 mm 2 mps 715 mmHg 75%
    16:00 +28°C° 0.1 mm 2 mps 715 mmHg 81%
    17:00 +27°C° 0 mm 1 mps 715 mmHg 84%
    18:00 +26°C° 0 mm 1 mps 716 mmHg 88%
    19:00 +25°C° 0 mm 1 mps 716 mmHg 92%
    20:00 +24°C° 0 mm 1 mps 717 mmHg 89%
    21:00 +24°C° 0 mm 1 mps 717 mmHg 87%
    22:00 +24°C° 0 mm 1 mps 718 mmHg 85%
    23:00 +23°C° 0.1 mm 1 mps 718 mmHg 84%

    28 June, Friday

    Time Temperature Precipitation Wind Pressure Humidity
    00:00 +23°C° 0.1 mm 1 mps 718 mmHg 83%
    01:00 +23°C° 0.1 mm 1 mps 718 mmHg 82%
    02:00 +22°C° 0.8 mm 1 mps 718 mmHg 84%
    03:00 +22°C° 0.8 mm 1 mps 718 mmHg 86%
    04:00 +22°C° 0.8 mm 1 mps 717 mmHg 88%
    05:00 +22°C° 0.4 mm 1 mps 718 mmHg 87%
    06:00 +22°C° 0.4 mm 1 mps 718 mmHg 86%
    07:00 +23°C° 0.4 mm 1 mps 719 mmHg 85%
    08:00 +24°C° 0 mm 1 mps 719 mmHg 82%
    09:00 +25°C° 0 mm 1 mps 719 mmHg 79%
    10:00 +25°C° 0 mm 0 mps 719 mmHg 76%
    11:00 +28°C° 0.1 mm 1 mps 719 mmHg 76%
    12:00 +28°C° 0.1 mm 1 mps 718 mmHg 76%
    13:00 +29°C° 0.1 mm 2 mps 718 mmHg 77%
    14:00 +28°C° 0.4 mm 2 mps 717 mmHg 80%
    15:00 +28°C° 0.4 mm 1 mps 716 mmHg 84%
    16:00 +27°C° 0.4 mm 1 mps 715 mmHg 87%
    17:00 +27°C° 0.2 mm 1 mps 716 mmHg 88%
    18:00 +26°C° 0.2 mm 1 mps 716 mmHg 90%
    19:00 +25°C° 0.2 mm 1 mps 717 mmHg 91%
    20:00 +25°C° 0.1 mm 1 mps 717 mmHg 91%
    21:00 +24°C° 0.1 mm 1 mps 718 mmHg 91%
    22:00 +24°C° 0.1 mm 1 mps 719 mmHg 90%
    23:00 +23°C° 1.4 mm 1 mps 718 mmHg 93%

    29 June, Saturday

    Time Temperature Precipitation Wind Pressure Humidity
    00:00 +23°C° 1.4 mm 1 mps 718 mmHg 95%
    01:00 +23°C° 1.4 mm 1 mps 718 mmHg 97%
    02:00 +23°C° 0.9 mm 1 mps 718 mmHg 95%
    03:00 +23°C° 0.9 mm 1 mps 718 mmHg 94%
    04:00 +23°C° 0.9 mm 1 mps 717 mmHg 92%
    05:00 +23°C° 0 mm 1 mps 718 mmHg 91%
    06:00 +24°C° 0 mm 1 mps 718 mmHg 89%
    07:00 +24°C° 0 mm 1 mps 719 mmHg 88%
    08:00 +26°C° 0.2 mm 1 mps 719 mmHg 84%
    09:00 +27°C° 0.2 mm 2 mps 719 mmHg 79%
    10:00 +29°C° 0.2 mm 2 mps 720 mmHg 75%
    11:00 +28°C° 1.1 mm 2 mps 719 mmHg 80%
    12:00 +28°C° 1.1 mm 2 mps 718 mmHg 85%
    13:00 +28°C° 1.1 mm 2 mps 717 mmHg 89%
    14:00 +28°C° 0.8 mm 2 mps 717 mmHg 90%
    15:00 +27°C° 0.8 mm 1 mps 716 mmHg 91%
    16:00 +27°C° 0.8 mm 1 mps 715 mmHg 92%
    17:00 +26°C° 0.2 mm 1 mps 716 mmHg 93%
    18:00 +25°C° 0.2 mm 1 mps 716 mmHg 94%
    19:00 +22°C° 0.2 mm 0 mps 717 mmHg 95%
    20:00 +24°C° 0.1 mm 1 mps 717 mmHg 94%
    21:00 +24°C° 0.1 mm 1 mps 718 mmHg 93%
    22:00 +24°C° 0.1 mm 1 mps 718 mmHg 92%
    23:00 +24°C° 0.8 mm 1 mps 718 mmHg 92%

    30 June, Sunday

    Time Temperature Precipitation Wind Pressure Humidity
    00:00 +24°C° 0.8 mm 1 mps 718 mmHg 93%
    01:00 +24°C° 0.8 mm 1 mps 718 mmHg 94%
    02:00 +24°C° 0.5 mm 1 mps 718 mmHg 94%
    03:00 +24°C° 0.5 mm 1 mps 717 mmHg 95%
    04:00 +23°C° 0.5 mm 1 mps 717 mmHg 95%
    05:00 +24°C° 0 mm 1 mps 718 mmHg 95%
    06:00 +22°C° 0 mm 0 mps 718 mmHg 95%
    07:00 +22°C° 0 mm 0 mps 719 mmHg 95%
    08:00 +24°C° 0.2 mm 1 mps 719 mmHg 95%
    09:00 +24°C° 0.2 mm 1 mps 719 mmHg 95%
    10:00 +25°C° 0.2 mm 1 mps 719 mmHg 96%
    11:00 +24°C° 1.2 mm 1 mps 718 mmHg 97%
    12:00 +24°C° 1.2 mm 1 mps 718 mmHg 98%
    13:00 +22°C° 1.2 mm 0 mps 717 mmHg 99%
    14:00 +22°C° 0.5 mm 0 mps 717 mmHg 98%
    15:00 +22°C° 0.5 mm 0 mps 717 mmHg 97%
    16:00 +22°C° 0.5 mm 0 mps 716 mmHg 96%
    17:00 +22°C° 0.1 mm 0 mps 717 mmHg 95%
    18:00 +23°C° 0.1 mm 1 mps 717 mmHg 94%
    19:00 +23°C° 0.1 mm 1 mps 717 mmHg 94%
    20:00 +23°C° 0 mm 1 mps 718 mmHg 93%
    21:00 +23°C° 0 mm 1 mps 718 mmHg 92%
    22:00 +23°C° 0 mm 1 mps 719 mmHg 91%
    23:00 +23°C° 0 mm 1 mps 718 mmHg 89%
    Show more